Weather History for Mesquite, TX

Change the Weather History Date:

Sunday, June 23, 2013

  Actual Average (KDFW) Record (KDFW)
Temperature  
Mean Temperature 84 °F 83 °F  
Max Temperature 95 °F 93 °F 104 °F (1980)
Min Temperature 74 °F 73 °F 63 °F (1903)
Degree Days  
Heating Degree Days 0 0  
Month to date heating degree days 0  
Since 1 June heating degree days 0  
Since 1 July heating degree days 2284  
Cooling Degree Days 19 18  
Month to date cooling degree days 363  
Year to date cooling degree days 785  
Since 1 June cooling degree days 363  
Growing Degree Days 34 (Base 50)    
Moisture  
Dew Point 66 °F    
Average Humidity 57    
Maximum Humidity 84    
Minimum Humidity 33    
Precipitation  
Precipitation 0.00 in 0.12 in 0.84 in (1947)
Month to date precipitation 3.05  
Year to date precipitation 19.30  
Sea Level Pressure  
Sea Level Pressure 29.95 in    
Wind  
Wind Speed 10 mph (SSE)    
Max Wind Speed 17 mph    
Max Gust Speed 24 mph    
Visibility 10 miles    
Events      
T = Trace of Precipitation, MM = Missing Value Source: NWS Daily Summary

Daily Weather History Graph

Daily Weather History Graph

Search for Another Location

Airport:

Trip Planner

Search our weather history database for the weather conditions in past years. The results will help you decide how hot, cold, wet, or windy it might be!

Date:

Astronomy

Jun. 23, 2013 Rise Set
Actual Time 6:19 AM CDT 8:37 PM CDT
Civil Twilight 5:50 AM CDT 9:06 PM CDT
Nautical Twilight 5:15 AM CDT 9:41 PM CDT
Astronomical Twilight 4:37 AM CDT 10:19 PM CDT
Moon 8:55 PM CDT (6/23) 6:34 AM CDT (6/23)
Length of Visible Light 15h 15m
Length of Day
14h 18m
Full, 100% of the Moon is Illuminated
Jun 23
Full
Jun 29
Last Quarter
Jul 8
New
Jul 15
First Quarter
Jul 22
Full

Hourly Weather History & Observations

Time (CDT) Temp. Heat Index Dew Point Humidity Pressure Visibility Wind Dir Wind Speed Gust Speed Precip Events Conditions
12:15 AM 81.0 °F 83.4 °F 67.5 °F 63% 29.95 in 10.0 mi SSE 8.1 mph - N/A   Clear
12:35 AM 81.5 °F 84.1 °F 67.3 °F 62% 29.95 in 10.0 mi SSE 8.1 mph - N/A   Clear
12:55 AM 81.5 °F 84.2 °F 67.6 °F 63% 29.95 in 10.0 mi SSE 10.4 mph - N/A   Clear
1:15 AM 81.0 °F 83.6 °F 67.6 °F 64% 29.95 in 10.0 mi SSE 10.4 mph - N/A   Clear
1:35 AM 80.1 °F 82.7 °F 68.0 °F 67% 29.94 in 10.0 mi SSE 8.1 mph - N/A   Clear
1:55 AM 79.9 °F - 68.0 °F 67% 29.94 in 10.0 mi SSE 8.1 mph - N/A   Clear
2:15 AM 79.2 °F - 68.0 °F 69% 29.94 in 10.0 mi SSE 9.2 mph - N/A   Clear
2:35 AM 78.8 °F - 68.0 °F 69% 29.94 in 10.0 mi SSE 8.1 mph - N/A   Clear
2:55 AM 78.1 °F - 68.0 °F 71% 29.94 in 10.0 mi SSE 8.1 mph - N/A   Clear
3:15 AM 77.4 °F - 68.2 °F 73% 29.95 in 10.0 mi SSE 6.9 mph - N/A   Clear
3:35 AM 77.2 °F - 68.2 °F 74% 29.94 in 10.0 mi SSE 8.1 mph - N/A   Clear
3:55 AM 77.0 °F - 68.2 °F 74% 29.95 in 10.0 mi SSE 6.9 mph - N/A   Clear
4:15 AM 76.3 °F - 68.2 °F 76% 29.95 in 10.0 mi SSE 6.9 mph - N/A   Clear
4:35 AM 76.1 °F - 68.2 °F 76% 29.95 in 10.0 mi SE 8.1 mph - N/A   Clear
4:55 AM 75.6 °F - 68.2 °F 78% 29.94 in 10.0 mi SSE 8.1 mph - N/A   Clear
5:15 AM 75.2 °F - 68.2 °F 79% 29.95 in 10.0 mi SSE 6.9 mph - N/A   Clear
5:35 AM 74.5 °F - 68.2 °F 81% 29.95 in 10.0 mi SSE 8.1 mph - N/A   Clear
5:55 AM 74.5 °F - 68.5 °F 82% 29.95 in 10.0 mi SSE 8.1 mph - N/A   Clear
6:15 AM 74.3 °F - 68.7 °F 83% 29.96 in 10.0 mi SSE 9.2 mph - N/A   Clear
6:35 AM 74.3 °F - 68.9 °F 83% 29.96 in 10.0 mi SSE 8.1 mph - N/A   Clear
6:55 AM 74.3 °F - 69.1 °F 84% 29.97 in 10.0 mi SSE 9.2 mph - N/A   Clear
7:15 AM 74.8 °F - 69.8 °F 84% 29.97 in 10.0 mi SSE 9.2 mph - N/A   Clear
7:35 AM 75.6 °F - 70.0 °F 83% 29.98 in 10.0 mi SSE 10.4 mph - N/A   Clear
7:55 AM 76.5 °F - 70.5 °F 82% 29.99 in 10.0 mi SSE 9.2 mph - N/A   Clear
8:15 AM 77.2 °F - 70.9 °F 81% 29.99 in 10.0 mi SSE 9.2 mph - N/A   Mostly Cloudy
8:35 AM 77.7 °F - 70.9 °F 79% 30.00 in 10.0 mi South 11.5 mph - N/A   Overcast
8:55 AM 79.0 °F - 70.7 °F 76% 30.01 in 10.0 mi South 15.0 mph 19.6 mph N/A   Mostly Cloudy
9:15 AM 79.7 °F - 70.7 °F 74% 30.01 in 10.0 mi South 12.7 mph 17.3 mph N/A   Mostly Cloudy
9:35 AM 82.2 °F 86.4 °F 70.7 °F 68% 30.01 in 10.0 mi South 12.7 mph - N/A   Mostly Cloudy
9:55 AM 82.2 °F 86.6 °F 71.1 °F 69% 30.01 in 10.0 mi South 11.5 mph - N/A   Mostly Cloudy
10:15 AM 82.6 °F 86.8 °F 70.5 °F 67% 30.01 in 10.0 mi South 15.0 mph - N/A   Scattered Clouds
10:35 AM 84.0 °F 88.4 °F 70.3 °F 63% 30.01 in 10.0 mi South 12.7 mph 19.6 mph N/A   Clear
10:55 AM 85.5 °F 89.8 °F 69.8 °F 59% 30.01 in 10.0 mi South 11.5 mph - N/A   Clear
11:15 AM 86.5 °F 91.0 °F 69.8 °F 57% 30.01 in 10.0 mi South 12.7 mph - N/A   Clear
11:35 AM 87.1 °F 90.9 °F 68.7 °F 54% 30.01 in 7.0 mi South 15.0 mph 20.7 mph N/A   Clear
11:55 AM 88.0 °F 91.8 °F 68.4 °F 52% 30.00 in 10.0 mi South 13.8 mph 19.6 mph N/A   Clear
12:15 PM 88.7 °F 91.9 °F 67.5 °F 49% 29.99 in 10.0 mi South 16.1 mph 19.6 mph N/A   Clear
12:35 PM 89.2 °F 92.4 °F 67.1 °F 48% 29.99 in 10.0 mi South 13.8 mph 24.2 mph N/A   Scattered Clouds
12:55 PM 90.0 °F 92.8 °F 66.4 °F 46% 29.98 in 10.0 mi South 13.8 mph 20.7 mph N/A   Clear
1:15 PM 90.9 °F 93.1 °F 65.5 °F 43% 29.97 in 10.0 mi South 12.7 mph 20.7 mph N/A   Clear
1:35 PM 91.6 °F 94.3 °F 66.0 °F 43% 29.96 in 10.0 mi South 16.1 mph 23.0 mph N/A   Clear
1:55 PM 92.5 °F 95.0 °F 65.3 °F 41% 29.96 in 10.0 mi South 13.8 mph 21.9 mph N/A   Clear
2:15 PM 92.7 °F 94.4 °F 64.2 °F 39% 29.96 in 10.0 mi South 17.3 mph 21.9 mph N/A   Clear
2:35 PM 93.2 °F 94.9 °F 63.9 °F 38% 29.95 in 10.0 mi South 15.0 mph 23.0 mph N/A   Clear
2:55 PM 93.4 °F 94.7 °F 63.5 °F 37% 29.94 in 10.0 mi South 15.0 mph 18.4 mph N/A   Clear
3:15 PM 94.1 °F 95.0 °F 62.8 °F 35% 29.94 in 10.0 mi South 17.3 mph 20.7 mph N/A   Clear
3:35 PM 94.6 °F 96.4 °F 63.7 °F 36% 29.92 in 10.0 mi South 15.0 mph 19.6 mph N/A   Clear
3:55 PM 94.5 °F 95.2 °F 61.9 °F 34% 29.92 in 10.0 mi South 13.8 mph 24.2 mph N/A   Clear
4:15 PM 94.1 °F 95.0 °F 62.6 °F 35% 29.92 in 10.0 mi SSE 12.7 mph - N/A   Clear
4:35 PM 94.3 °F 94.9 °F 62.1 °F 34% 29.91 in 10.0 mi South 10.4 mph 23.0 mph N/A   Clear
4:55 PM 94.5 °F 95.2 °F 61.9 °F 34% 29.91 in 10.0 mi South 12.7 mph 17.3 mph N/A   Clear
5:15 PM 94.8 °F 95.3 °F 61.3 °F 33% 29.91 in 10.0 mi SSE 10.4 mph - N/A   Clear
5:35 PM 94.1 °F 94.6 °F 61.9 °F 34% 29.91 in 10.0 mi SSE 10.4 mph - N/A   Clear
5:55 PM 94.1 °F 94.6 °F 61.5 °F 34% 29.90 in 10.0 mi SSE 10.4 mph 16.1 mph N/A   Clear
6:15 PM 93.2 °F 93.3 °F 60.6 °F 34% 29.90 in 10.0 mi SSE 10.4 mph - N/A   Clear
6:35 PM 93.2 °F 93.3 °F 60.6 °F 34% 29.90 in 10.0 mi SSE 6.9 mph - N/A   Clear
6:55 PM 91.9 °F 92.2 °F 61.5 °F 36% 29.90 in 10.0 mi SSE 8.1 mph - N/A   Clear
7:15 PM 91.2 °F 92.2 °F 62.8 °F 39% 29.90 in 10.0 mi SE 8.1 mph - N/A   Clear
7:35 PM 89.8 °F 91.0 °F 63.9 °F 42% 29.90 in 10.0 mi SE 8.1 mph - N/A   Clear
7:55 PM 89.1 °F 90.0 °F 63.3 °F 42% 29.90 in 10.0 mi SE 9.2 mph - N/A   Clear
8:15 PM 88.0 °F 88.7 °F 62.6 °F 43% 29.90 in 10.0 mi SE 9.2 mph - N/A   Clear
8:35 PM 87.4 °F 87.7 °F 61.7 °F 42% 29.90 in 10.0 mi SE 8.1 mph - N/A   Clear
8:55 PM 86.0 °F 86.3 °F 61.9 °F 44% 29.90 in 10.0 mi SE 8.1 mph - N/A   Clear
9:15 PM 85.1 °F 85.9 °F 62.6 °F 47% 29.91 in 10.0 mi SE 8.1 mph - N/A   Clear
9:35 PM 84.6 °F 85.6 °F 63.5 °F 49% 29.91 in 10.0 mi SE 9.2 mph - N/A   Clear
9:55 PM 84.2 °F 85.6 °F 64.0 °F 51% 29.92 in 10.0 mi SE 8.1 mph - N/A   Clear
10:15 PM 83.3 °F 84.8 °F 64.6 °F 53% 29.93 in 10.0 mi SE 8.1 mph - N/A   Clear
10:35 PM 82.9 °F 84.8 °F 65.3 °F 55% 29.94 in 10.0 mi SE 8.1 mph - N/A   Clear
10:55 PM 82.4 °F 84.6 °F 66.2 °F 58% 29.95 in 10.0 mi SSE 9.2 mph - N/A   Clear
11:15 PM 82.4 °F 84.8 °F 66.7 °F 59% 29.95 in 10.0 mi SE 8.1 mph - N/A   Clear
11:35 PM 82.0 °F 84.7 °F 67.3 °F 61% 29.95 in 10.0 mi SE 9.2 mph - N/A   Clear
11:55 PM 81.7 °F 84.3 °F 67.6 °F 62% 29.96 in 10.0 mi SE 6.9 mph - N/A   Clear